UAL3426 KBTV-KEWR

Flight info

Callsign UAL3426
Flight time 0h 42m
Altitude 22000
Route BTV1 ALB FLOSI4
Aircraft B737/M-VGDW/C

Departure

Time 2026-05-08 20:58
Airport Patrick Leahy Burlington International Airport (KBTV)

Arrival

Time 2026-05-08 21:41
Airport Newark Liberty International Airport (KEWR)
Time Latitude Longitude Altitude Speed Heading
2026-05-08 19:55 44.46950 -73.15415 338 ft 0 kts 265°
2026-05-08 20:47 44.46950 -73.15409 337 ft 3 kts 264°
2026-05-08 20:48 44.46955 -73.15373 334 ft 4 kts 248°
2026-05-08 20:48 44.46969 -73.15346 331 ft 4 kts 193°
2026-05-08 20:48 44.46981 -73.15345 334 ft 1 kts 172°
2026-05-08 20:48 44.46982 -73.15346 334 ft 1 kts 172°
2026-05-08 20:53 44.46960 -73.15341 332 ft 14 kts 172°
2026-05-08 20:53 44.46911 -73.15224 336 ft 17 kts 70°
2026-05-08 20:54 44.46947 -73.15154 333 ft 8 kts 47°
2026-05-08 20:54 44.46926 -73.15050 336 ft 19 kts 125°
2026-05-08 20:54 44.46824 -73.14884 338 ft 23 kts 131°
2026-05-08 20:54 44.46726 -73.14721 341 ft 16 kts 134°
2026-05-08 20:55 44.46693 -73.14670 342 ft 5 kts 132°
2026-05-08 20:55 44.46672 -73.14636 344 ft 5 kts 130°
2026-05-08 20:55 44.46637 -73.14572 348 ft 12 kts 127°
2026-05-08 20:55 44.46566 -73.14455 352 ft 20 kts 131°
2026-05-08 20:56 44.46510 -73.14359 352 ft 6 kts 123°
2026-05-08 20:56 44.46509 -73.14303 346 ft 6 kts 68°
2026-05-08 20:56 44.46513 -73.14293 348 ft 0 kts 60°
2026-05-08 20:56 44.46541 -73.14249 352 ft 12 kts 36°
2026-05-08 20:57 44.46594 -73.14231 355 ft 11 kts 330°
2026-05-08 20:57 44.46611 -73.14250 355 ft 0 kts 317°
2026-05-08 20:57 44.46650 -73.14307 349 ft 27 kts 312°
2026-05-08 20:58 44.46857 -73.14639 343 ft 110 kts 311°
2026-05-08 20:58 44.47589 -73.15832 615 ft 200 kts 310°
2026-05-08 20:58 44.48542 -73.17344 2336 ft 192 kts 306°
2026-05-08 20:58 44.48770 -73.18858 4715 ft 173 kts 248°
2026-05-08 20:59 44.47697 -73.20082 5320 ft 234 kts 203°
2026-05-08 20:59 44.46240 -73.20417 7631 ft 182 kts 175°
2026-05-08 20:59 44.44875 -73.20082 8702 ft 229 kts 178°
2026-05-08 20:59 44.43250 -73.20249 9892 ft 231 kts 200°
2026-05-08 21:00 44.41787 -73.21045 11457 ft 224 kts 207°
2026-05-08 21:00 44.40287 -73.22028 12067 ft 265 kts 211°
2026-05-08 21:00 44.38438 -73.23338 12385 ft 313 kts 206°
2026-05-08 21:00 44.36324 -73.24281 13764 ft 331 kts 199°
2026-05-08 21:01 44.34083 -73.25081 14689 ft 338 kts 199°
2026-05-08 21:01 44.31727 -73.25926 15297 ft 357 kts 199°
2026-05-08 21:01 44.29279 -73.26795 15963 ft 372 kts 199°
2026-05-08 21:01 44.26718 -73.27701 16638 ft 385 kts 199°
2026-05-08 21:02 44.24078 -73.28632 17327 ft 396 kts 199°
2026-05-08 21:02 44.21368 -73.29588 18030 ft 406 kts 199°
2026-05-08 21:02 44.18600 -73.30564 18658 ft 414 kts 199°
2026-05-08 21:02 44.15820 -73.31546 19265 ft 421 kts 199°
2026-05-08 21:03 44.12962 -73.32555 19891 ft 427 kts 199°
2026-05-08 21:03 44.10059 -73.33580 20529 ft 433 kts 200°
2026-05-08 21:03 44.07124 -73.34615 21178 ft 437 kts 200°
2026-05-08 21:03 44.04169 -73.35657 21806 ft 442 kts 200°
2026-05-08 21:04 44.01155 -73.36722 21884 ft 453 kts 200°
2026-05-08 21:04 43.98059 -73.37817 21901 ft 462 kts 200°
2026-05-08 21:04 43.94928 -73.38921 21908 ft 467 kts 200°
2026-05-08 21:04 43.91776 -73.40025 21898 ft 466 kts 200°
2026-05-08 21:05 43.88646 -73.41116 21896 ft 463 kts 200°
2026-05-08 21:05 43.85519 -73.42208 21891 ft 464 kts 200°
2026-05-08 21:05 43.82389 -73.43301 21892 ft 462 kts 200°
2026-05-08 21:05 43.79278 -73.44388 21894 ft 462 kts 200°
2026-05-08 21:06 43.76159 -73.45478 21893 ft 462 kts 200°
2026-05-08 21:06 43.73045 -73.46567 21894 ft 462 kts 200°
2026-05-08 21:06 43.69924 -73.47657 21900 ft 462 kts 200°
2026-05-08 21:06 43.66803 -73.48745 21912 ft 463 kts 200°
2026-05-08 21:07 43.63672 -73.49836 21904 ft 463 kts 200°
2026-05-08 21:07 43.60550 -73.50921 21898 ft 463 kts 200°
2026-05-08 21:07 43.57426 -73.52005 21894 ft 463 kts 200°
2026-05-08 21:07 43.54312 -73.53085 21898 ft 463 kts 200°
2026-05-08 21:08 43.51184 -73.54169 21902 ft 462 kts 200°
2026-05-08 21:08 43.48060 -73.55250 21900 ft 462 kts 200°
2026-05-08 21:08 43.44946 -73.56328 21910 ft 463 kts 200°
2026-05-08 21:08 43.41824 -73.57407 21900 ft 463 kts 200°
2026-05-08 21:09 43.38701 -73.58484 21900 ft 462 kts 200°
2026-05-08 21:09 43.35582 -73.59560 21896 ft 462 kts 200°
2026-05-08 21:09 43.32460 -73.60635 21900 ft 462 kts 201°
2026-05-08 21:09 43.29346 -73.61706 21897 ft 462 kts 201°
2026-05-08 21:10 43.26229 -73.62777 21897 ft 461 kts 201°
2026-05-08 21:10 43.23119 -73.63845 21900 ft 461 kts 201°
2026-05-08 21:10 43.19998 -73.64916 21911 ft 461 kts 201°
2026-05-08 21:10 43.16882 -73.65984 21908 ft 462 kts 201°
2026-05-08 21:11 43.13767 -73.67050 21901 ft 462 kts 201°
2026-05-08 21:11 43.10648 -73.68116 21908 ft 462 kts 201°
2026-05-08 21:11 43.07529 -73.69181 21912 ft 462 kts 201°
2026-05-08 21:11 43.04427 -73.70295 21937 ft 461 kts 203°
2026-05-08 21:12 43.01355 -73.71531 21921 ft 459 kts 204°
2026-05-08 21:12 42.98303 -73.72816 21932 ft 459 kts 205°
2026-05-08 21:12 42.95297 -73.74093 21928 ft 459 kts 205°
2026-05-08 21:12 42.92252 -73.75377 21923 ft 458 kts 204°
2026-05-08 21:13 42.89206 -73.76645 21935 ft 458 kts 204°
2026-05-08 21:13 42.86151 -73.77905 21930 ft 458 kts 204°
2026-05-08 21:13 42.83104 -73.79151 21923 ft 459 kts 204°
2026-05-08 21:13 42.80044 -73.80398 21926 ft 459 kts 204°
2026-05-08 21:14 42.76979 -73.81643 21926 ft 459 kts 204°
2026-05-08 21:14 42.73923 -73.82882 21927 ft 459 kts 204°
2026-05-08 21:14 42.70854 -73.84125 21934 ft 460 kts 204°
2026-05-08 21:14 42.67789 -73.85366 21932 ft 460 kts 204°
2026-05-08 21:15 42.64727 -73.86606 21938 ft 460 kts 204°
2026-05-08 21:15 42.61653 -73.87848 21931 ft 460 kts 204°
2026-05-08 21:15 42.58596 -73.89083 21930 ft 459 kts 204°
2026-05-08 21:15 42.55533 -73.90319 21929 ft 460 kts 204°
2026-05-08 21:16 42.52462 -73.91558 21928 ft 459 kts 204°
2026-05-08 21:16 42.49400 -73.92790 21932 ft 459 kts 204°
2026-05-08 21:16 42.46338 -73.94023 21931 ft 460 kts 204°
2026-05-08 21:16 42.43272 -73.95255 21922 ft 459 kts 204°
2026-05-08 21:17 42.40213 -73.96483 21927 ft 459 kts 204°
2026-05-08 21:17 42.37157 -73.97709 21923 ft 457 kts 204°
2026-05-08 21:17 42.34116 -73.98927 21929 ft 457 kts 204°
2026-05-08 21:17 42.31068 -74.00148 21865 ft 458 kts 204°
2026-05-08 21:18 42.28076 -74.01344 21515 ft 447 kts 204°
2026-05-08 21:18 42.25127 -74.02510 21187 ft 427 kts 204°
2026-05-08 21:18 42.22334 -74.03635 20772 ft 421 kts 205°
2026-05-08 21:18 42.19554 -74.04848 20256 ft 419 kts 206°
2026-05-08 21:19 42.16745 -74.06117 19752 ft 421 kts 206°
2026-05-08 21:19 42.13961 -74.07380 19282 ft 435 kts 206°
2026-05-08 21:19 42.11054 -74.08678 18787 ft 436 kts 205°
2026-05-08 21:19 42.08168 -74.09947 18308 ft 433 kts 205°
2026-05-08 21:20 42.05315 -74.11190 17745 ft 429 kts 206°
2026-05-08 21:20 42.02484 -74.12430 17215 ft 426 kts 205°
2026-05-08 21:20 41.99676 -74.13663 16677 ft 423 kts 206°
2026-05-08 21:20 41.96926 -74.14868 16153 ft 419 kts 205°
2026-05-08 21:21 41.94163 -74.16079 15648 ft 416 kts 206°
2026-05-08 21:21 41.91422 -74.17283 15137 ft 414 kts 204°
2026-05-08 21:21 41.88653 -74.18494 14623 ft 410 kts 205°
2026-05-08 21:21 41.85983 -74.19659 14145 ft 408 kts 204°
2026-05-08 21:22 41.83296 -74.20832 13643 ft 405 kts 205°
2026-05-08 21:22 41.80630 -74.21992 13101 ft 400 kts 204°
2026-05-08 21:22 41.77973 -74.23148 12557 ft 395 kts 204°
2026-05-08 21:22 41.75371 -74.24283 12029 ft 390 kts 205°
2026-05-08 21:23 41.72836 -74.25388 11510 ft 386 kts 204°
2026-05-08 21:23 41.70302 -74.26492 11005 ft 381 kts 204°
2026-05-08 21:23 41.67796 -74.27581 10499 ft 377 kts 204°
2026-05-08 21:23 41.65319 -74.28656 10015 ft 369 kts 203°
2026-05-08 21:24 41.62962 -74.29670 9470 ft 340 kts 204°
2026-05-08 21:24 41.60802 -74.30599 8922 ft 313 kts 204°
2026-05-08 21:24 41.58804 -74.31464 8383 ft 293 kts 204°
2026-05-08 21:24 41.56915 -74.32283 7852 ft 277 kts 204°
2026-05-08 21:25 41.55122 -74.33060 7330 ft 268 kts 203°
2026-05-08 21:25 41.53352 -74.33833 7107 ft 271 kts 203°
2026-05-08 21:25 41.51555 -74.34615 7032 ft 272 kts 203°
2026-05-08 21:25 41.49768 -74.35388 7007 ft 267 kts 203°
2026-05-08 21:26 41.48012 -74.36146 7008 ft 264 kts 203°
2026-05-08 21:26 41.46267 -74.36900 7015 ft 265 kts 203°
2026-05-08 21:26 41.44511 -74.37658 6991 ft 267 kts 203°
2026-05-08 21:26 41.42755 -74.38414 6852 ft 261 kts 202°
2026-05-08 21:27 41.41054 -74.39144 6721 ft 254 kts 203°
2026-05-08 21:27 41.39385 -74.39862 6596 ft 252 kts 202°
2026-05-08 21:27 41.37712 -74.40583 6491 ft 253 kts 202°
2026-05-08 21:27 41.36033 -74.41307 6347 ft 255 kts 202°
2026-05-08 21:28 41.34332 -74.42039 6101 ft 256 kts 202°
2026-05-08 21:28 41.32645 -74.42762 6046 ft 256 kts 202°
2026-05-08 21:28 41.30947 -74.43491 6030 ft 254 kts 202°
2026-05-08 21:28 41.29272 -74.44208 6032 ft 252 kts 202°
2026-05-08 21:29 41.27604 -74.44923 6028 ft 252 kts 202°
2026-05-08 21:29 41.25937 -74.45637 6021 ft 251 kts 202°
2026-05-08 21:29 41.24218 -74.46076 6015 ft 257 kts 182°
2026-05-08 21:29 41.22486 -74.45401 6035 ft 267 kts 153°
2026-05-08 21:30 41.21046 -74.43805 6028 ft 272 kts 139°
2026-05-08 21:30 41.19714 -74.42033 6018 ft 273 kts 138°
2026-05-08 21:30 41.18379 -74.40228 6025 ft 272 kts 137°
2026-05-08 21:30 41.17062 -74.38441 6029 ft 272 kts 137°
2026-05-08 21:31 41.15733 -74.36637 6005 ft 274 kts 137°
2026-05-08 21:31 41.14379 -74.34805 5744 ft 280 kts 137°
2026-05-08 21:31 41.13016 -74.32960 5472 ft 278 kts 137°
2026-05-08 21:31 41.11671 -74.31141 5197 ft 273 kts 137°
2026-05-08 21:32 41.10355 -74.29358 5066 ft 273 kts 137°
2026-05-08 21:32 41.09016 -74.27553 5045 ft 274 kts 137°
2026-05-08 21:32 41.07675 -74.25754 5038 ft 274 kts 137°
2026-05-08 21:32 41.06336 -74.23956 5030 ft 275 kts 137°
2026-05-08 21:33 41.04997 -74.22158 5036 ft 273 kts 137°
2026-05-08 21:33 41.03667 -74.20360 5039 ft 274 kts 137°
2026-05-08 21:33 41.02337 -74.18559 5035 ft 273 kts 137°
2026-05-08 21:33 41.01015 -74.16771 5034 ft 273 kts 137°
2026-05-08 21:34 40.99680 -74.14970 5039 ft 272 kts 137°
2026-05-08 21:34 40.98371 -74.13199 4922 ft 276 kts 137°
2026-05-08 21:34 40.97000 -74.11347 4655 ft 278 kts 137°
2026-05-08 21:34 40.95677 -74.09557 4398 ft 274 kts 137°
2026-05-08 21:35 40.94334 -74.07747 4136 ft 272 kts 137°
2026-05-08 21:35 40.92939 -74.06090 3874 ft 267 kts 144°
2026-05-08 21:35 40.91482 -74.04548 3356 ft 266 kts 150°
2026-05-08 21:35 40.89812 -74.03761 3081 ft 245 kts 181°
2026-05-08 21:36 40.88231 -74.04130 3043 ft 225 kts 205°
2026-05-08 21:36 40.86792 -74.04870 3033 ft 218 kts 207°
2026-05-08 21:36 40.85395 -74.05617 2957 ft 218 kts 207°
2026-05-08 21:36 40.83985 -74.06387 2764 ft 222 kts 207°
2026-05-08 21:37 40.82539 -74.07130 2560 ft 226 kts 199°
2026-05-08 21:37 40.80962 -74.07173 2406 ft 235 kts 179°
2026-05-08 21:37 40.79357 -74.06925 2163 ft 225 kts 178°
2026-05-08 21:37 40.77872 -74.06744 2044 ft 205 kts 183°
2026-05-08 21:38 40.76469 -74.06674 2043 ft 198 kts 185°
2026-05-08 21:38 40.75090 -74.06625 1917 ft 200 kts 184°
2026-05-08 21:38 40.73754 -74.06802 1721 ft 185 kts 206°
2026-05-08 21:38 40.72617 -74.07496 1599 ft 178 kts 210°
2026-05-08 21:39 40.71493 -74.08217 1395 ft 180 kts 212°
2026-05-08 21:39 40.70387 -74.08947 978 ft 176 kts 212°
2026-05-08 21:39 40.69508 -74.09820 856 ft 138 kts 254°
2026-05-08 21:39 40.69559 -74.10939 706 ft 124 kts 285°
2026-05-08 21:40 40.69790 -74.12069 666 ft 136 kts 283°
2026-05-08 21:40 40.69929 -74.13221 513 ft 125 kts 277°
2026-05-08 21:40 40.70043 -74.14323 333 ft 116 kts 277°
2026-05-08 21:41 40.70171 -74.16376 18 ft 98 kts 274°
2026-05-08 21:41 40.70201 -74.16942 20 ft 33 kts 267°
2026-05-08 21:41 40.70146 -74.17219 21 ft 29 kts 248°
2026-05-08 21:41 40.70091 -74.17353 20 ft 13 kts 220°
2026-05-08 21:42 40.70014 -74.17413 19 ft 13 kts 223°
2026-05-08 21:42 40.69949 -74.17491 20 ft 12 kts 219°
2026-05-08 21:42 40.69868 -74.17490 19 ft 6 kts 162°
2026-05-08 21:42 40.69866 -74.17489 19 ft 0 kts 160°
2026-05-08 21:43 40.69865 -74.17489 19 ft 1 kts 160°
2026-05-08 21:43 40.69849 -74.17476 20 ft 4 kts 152°
2026-05-08 21:43 40.69816 -74.17475 19 ft 3 kts 192°
2026-05-08 21:43 40.69797 -74.17478 19 ft 0 kts 186°